When you browse on this site, cookies collect data to enhance your experience and personalize the content and advertising you see.
Visit our Privacy Policy to learn more. By continuing to use the site, you agree to this use of cookies and data.

Hourly Weather Mahdia

Today, 15 July, Wednesday

Time Temperature Precipitation Wind Pressure Humidity
00:00 +27°C° 0 mm 1 mps 760 mmHg 71%
01:00 +25°C° 0 mm 0 mps 760 mmHg 73%
02:00 +27°C° 0 mm 1 mps 760 mmHg 74%
03:00 +26°C° 0 mm 2 mps 760 mmHg 74%
04:00 +26°C° 0 mm 2 mps 760 mmHg 74%
05:00 +27°C° 0 mm 2 mps 760 mmHg 72%
06:00 +28°C° 0 mm 3 mps 760 mmHg 69%
07:00 +28°C° 0 mm 3 mps 761 mmHg 67%
08:00 +29°C° 0 mm 2 mps 761 mmHg 62%
09:00 +30°C° 0 mm 2 mps 761 mmHg 58%
10:00 +31°C° 0 mm 2 mps 762 mmHg 53%
11:00 +33°C° 0 mm 3 mps 762 mmHg 50%
12:00 +33°C° 0 mm 5 mps 761 mmHg 47%
13:00 +34°C° 0 mm 6 mps 761 mmHg 44%
14:00 +34°C° 0 mm 6 mps 761 mmHg 45%
15:00 +34°C° 0 mm 6 mps 761 mmHg 46%
16:00 +33°C° 0 mm 5 mps 760 mmHg 47%
17:00 +32°C° 0 mm 6 mps 760 mmHg 52%
18:00 +30°C° 0 mm 6 mps 761 mmHg 57%
19:00 +29°C° 0 mm 6 mps 761 mmHg 62%
20:00 +28°C° 0 mm 5 mps 761 mmHg 65%
21:00 +28°C° 0 mm 5 mps 761 mmHg 68%
22:00 +28°C° 0 mm 4 mps 762 mmHg 71%
23:00 +27°C° 0 mm 4 mps 762 mmHg 73%

Tomorrow, 16 July, Thursday

Time Temperature Precipitation Wind Pressure Humidity
00:00 +27°C° 0 mm 3 mps 762 mmHg 74%
01:00 +26°C° 0 mm 2 mps 762 mmHg 76%
02:00 +26°C° 0 mm 3 mps 761 mmHg 77%
03:00 +26°C° 0 mm 3 mps 761 mmHg 78%
04:00 +26°C° 0 mm 3 mps 761 mmHg 79%
05:00 +26°C° 0 mm 3 mps 761 mmHg 75%
06:00 +27°C° 0 mm 4 mps 761 mmHg 71%
07:00 +28°C° 0 mm 4 mps 761 mmHg 67%
08:00 +29°C° 0 mm 4 mps 761 mmHg 61%
09:00 +30°C° 0 mm 4 mps 762 mmHg 55%
10:00 +32°C° 0 mm 4 mps 762 mmHg 50%
11:00 +33°C° 0 mm 4 mps 762 mmHg 48%
12:00 +33°C° 0 mm 4 mps 761 mmHg 46%
13:00 +34°C° 0 mm 4 mps 761 mmHg 43%
14:00 +34°C° 0 mm 5 mps 761 mmHg 42%
15:00 +34°C° 0 mm 5 mps 761 mmHg 40%
16:00 +34°C° 0 mm 5 mps 760 mmHg 38%
17:00 +33°C° 0 mm 5 mps 760 mmHg 42%
18:00 +32°C° 0 mm 6 mps 760 mmHg 47%
19:00 +30°C° 0 mm 6 mps 760 mmHg 51%
20:00 +29°C° 0 mm 6 mps 761 mmHg 54%
21:00 +28°C° 0 mm 6 mps 761 mmHg 57%
22:00 +28°C° 0 mm 6 mps 761 mmHg 60%
23:00 +27°C° 0 mm 6 mps 761 mmHg 60%

Day after tomorrow, 17 July, Friday

Time Temperature Precipitation Wind Pressure Humidity
00:00 +27°C° 0 mm 6 mps 761 mmHg 61%
01:00 +27°C° 0 mm 5 mps 760 mmHg 61%
02:00 +26°C° 0 mm 5 mps 760 mmHg 63%
03:00 +26°C° 0 mm 5 mps 760 mmHg 64%
04:00 +25°C° 0 mm 5 mps 760 mmHg 66%
05:00 +26°C° 0 mm 6 mps 760 mmHg 64%
06:00 +26°C° 0 mm 6 mps 760 mmHg 62%
07:00 +27°C° 0 mm 6 mps 760 mmHg 61%
08:00 +28°C° 0 mm 6 mps 760 mmHg 55%
09:00 +29°C° 0 mm 6 mps 760 mmHg 49%
10:00 +32°C° 0 mm 6 mps 760 mmHg 44%
11:00 +33°C° 0 mm 5 mps 760 mmHg 41%
12:00 +34°C° 0 mm 5 mps 760 mmHg 38%
13:00 +35°C° 0 mm 5 mps 760 mmHg 35%
14:00 +34°C° 0 mm 6 mps 759 mmHg 36%
15:00 +34°C° 0 mm 6 mps 759 mmHg 38%
16:00 +34°C° 0 mm 6 mps 758 mmHg 39%
17:00 +33°C° 0 mm 7 mps 758 mmHg 44%
18:00 +32°C° 0 mm 7 mps 759 mmHg 49%
19:00 +29°C° 0 mm 7 mps 759 mmHg 55%
20:00 +29°C° 0 mm 7 mps 759 mmHg 57%
21:00 +28°C° 0 mm 6 mps 759 mmHg 59%
22:00 +28°C° 0 mm 5 mps 760 mmHg 61%
23:00 +27°C° 0 mm 5 mps 760 mmHg 61%

18 July, Saturday

Time Temperature Precipitation Wind Pressure Humidity
00:00 +27°C° 0 mm 5 mps 760 mmHg 60%
01:00 +26°C° 0 mm 5 mps 759 mmHg 60%
02:00 +26°C° 0 mm 6 mps 759 mmHg 61%
03:00 +26°C° 0 mm 6 mps 759 mmHg 62%
04:00 +24°C° 0 mm 6 mps 759 mmHg 63%
05:00 +26°C° 0 mm 7 mps 759 mmHg 62%
06:00 +26°C° 0 mm 7 mps 759 mmHg 61%
07:00 +27°C° 0 mm 8 mps 759 mmHg 59%
08:00 +28°C° 0 mm 8 mps 760 mmHg 53%
09:00 +31°C° 0 mm 8 mps 760 mmHg 46%
10:00 +32°C° 0 mm 8 mps 760 mmHg 39%
11:00 +34°C° 0 mm 7 mps 760 mmHg 36%
12:00 +35°C° 0 mm 7 mps 759 mmHg 32%
13:00 +36°C° 0 mm 7 mps 759 mmHg 28%
14:00 +36°C° 0 mm 7 mps 759 mmHg 30%
15:00 +37°C° 0 mm 8 mps 759 mmHg 32%
16:00 +37°C° 0 mm 8 mps 758 mmHg 34%
17:00 +34°C° 0 mm 8 mps 759 mmHg 41%
18:00 +32°C° 0 mm 8 mps 759 mmHg 48%
19:00 +31°C° 0 mm 8 mps 759 mmHg 55%
20:00 +29°C° 0 mm 8 mps 759 mmHg 58%
21:00 +28°C° 0 mm 7 mps 760 mmHg 62%
22:00 +27°C° 0 mm 7 mps 760 mmHg 66%
23:00 +27°C° 0 mm 6 mps 760 mmHg 68%

19 July, Sunday

Time Temperature Precipitation Wind Pressure Humidity
00:00 +26°C° 0 mm 5 mps 760 mmHg 70%
01:00 +26°C° 0 mm 4 mps 760 mmHg 72%
02:00 +25°C° 0 mm 5 mps 760 mmHg 72%
03:00 +25°C° 0 mm 5 mps 760 mmHg 72%
04:00 +25°C° 0 mm 5 mps 760 mmHg 72%
05:00 +25°C° 0 mm 5 mps 760 mmHg 71%
06:00 +26°C° 0 mm 5 mps 760 mmHg 69%
07:00 +26°C° 0 mm 6 mps 760 mmHg 67%
08:00 +27°C° 0 mm 6 mps 761 mmHg 63%
09:00 +28°C° 0 mm 6 mps 761 mmHg 58%
10:00 +29°C° 0 mm 6 mps 761 mmHg 54%
11:00 +30°C° 0 mm 5 mps 761 mmHg 51%
12:00 +32°C° 0 mm 5 mps 761 mmHg 47%
13:00 +33°C° 0 mm 5 mps 761 mmHg 44%
14:00 +33°C° 0 mm 5 mps 761 mmHg 44%
15:00 +33°C° 0 mm 5 mps 761 mmHg 44%
16:00 +33°C° 0 mm 5 mps 760 mmHg 45%
17:00 +32°C° 0 mm 5 mps 760 mmHg 51%
18:00 +30°C° 0 mm 5 mps 761 mmHg 58%
19:00 +28°C° 0 mm 6 mps 761 mmHg 64%
20:00 +28°C° 0 mm 5 mps 761 mmHg 68%
21:00 +27°C° 0 mm 4 mps 762 mmHg 73%
22:00 +26°C° 0 mm 4 mps 762 mmHg 77%
23:00 +26°C° 0 mm 3 mps 762 mmHg 79%

20 July, Monday

Time Temperature Precipitation Wind Pressure Humidity
00:00 +26°C° 0 mm 3 mps 762 mmHg 81%
01:00 +25°C° 0 mm 2 mps 762 mmHg 82%
02:00 +25°C° 0 mm 2 mps 762 mmHg 84%
03:00 +25°C° 0 mm 2 mps 761 mmHg 85%
04:00 +24°C° 0 mm 2 mps 761 mmHg 86%
05:00 +25°C° 0 mm 2 mps 762 mmHg 81%
06:00 +26°C° 0 mm 3 mps 762 mmHg 77%
07:00 +27°C° 0 mm 3 mps 762 mmHg 72%
08:00 +28°C° 0 mm 3 mps 762 mmHg 65%
09:00 +29°C° 0 mm 3 mps 762 mmHg 58%
10:00 +30°C° 0 mm 3 mps 763 mmHg 51%
11:00 +31°C° 0 mm 3 mps 762 mmHg 49%
12:00 +33°C° 0 mm 3 mps 762 mmHg 47%
13:00 +33°C° 0 mm 3 mps 762 mmHg 45%
14:00 +33°C° 0 mm 4 mps 762 mmHg 46%
15:00 +33°C° 0 mm 4 mps 761 mmHg 47%
16:00 +33°C° 0 mm 4 mps 761 mmHg 48%
17:00 +32°C° 0 mm 4 mps 761 mmHg 53%
18:00 +30°C° 0 mm 4 mps 761 mmHg 58%
19:00 +29°C° 0 mm 4 mps 761 mmHg 63%
20:00 +28°C° 0 mm 4 mps 762 mmHg 68%
21:00 +27°C° 0 mm 3 mps 762 mmHg 73%
22:00 +26°C° 0 mm 2 mps 763 mmHg 78%
23:00 +25°C° 0 mm 1 mps 762 mmHg 80%
Show more